CEB560 RPVM-RPLL

Flight info

Callsign CEB560
Flight time 0h 54m
Altitude 38000
Route MULOP4P MULOP W11 CONDE CONDE3R
Aircraft A339/H-SADE1E2E3GHIJ3J5M1P2RWXY/LB2D1

Departure

Time 2026-05-08 03:55
Airport Mactan Cebu International Airport (RPVM)

Arrival

Time 2026-05-08 04:49
Airport Ninoy Aquino International Airport (RPLL)
Time Latitude Longitude Altitude Speed Heading
2026-05-08 03:41 10.31556 123.97979 44 ft 0 kts 314°
2026-05-08 03:43 10.31551 123.97983 44 ft 4 kts 313°
2026-05-08 03:43 10.31534 123.98002 43 ft 4 kts 307°
2026-05-08 03:43 10.31522 123.98020 41 ft 2 kts 292°
2026-05-08 03:43 10.31516 123.98033 41 ft 2 kts 269°
2026-05-08 03:44 10.31516 123.98045 40 ft 2 kts 248°
2026-05-08 03:44 10.31520 123.98056 41 ft 2 kts 234°
2026-05-08 03:44 10.31526 123.98065 41 ft 2 kts 229°
2026-05-08 03:44 10.31533 123.98073 41 ft 0 kts 226°
2026-05-08 03:49 10.31529 123.98069 40 ft 5 kts 226°
2026-05-08 03:50 10.31483 123.98019 45 ft 15 kts 226°
2026-05-08 03:50 10.31408 123.97939 44 ft 12 kts 224°
2026-05-08 03:50 10.31326 123.97909 44 ft 14 kts 174°
2026-05-08 03:50 10.31251 123.97967 45 ft 14 kts 141°
2026-05-08 03:51 10.31171 123.97953 43 ft 12 kts 217°
2026-05-08 03:51 10.31097 123.97880 44 ft 19 kts 224°
2026-05-08 03:51 10.30979 123.97761 44 ft 29 kts 225°
2026-05-08 03:51 10.30830 123.97610 44 ft 31 kts 225°
2026-05-08 03:52 10.30673 123.97456 45 ft 32 kts 224°
2026-05-08 03:52 10.30514 123.97298 45 ft 32 kts 224°
2026-05-08 03:52 10.30378 123.97162 45 ft 26 kts 224°
2026-05-08 03:52 10.30248 123.97029 44 ft 27 kts 225°
2026-05-08 03:53 10.30111 123.96889 44 ft 29 kts 225°
2026-05-08 03:53 10.29978 123.96754 44 ft 11 kts 225°
2026-05-08 03:53 10.29972 123.96747 44 ft 0 kts 224°
2026-05-08 03:53 10.29909 123.96706 44 ft 16 kts 192°
2026-05-08 03:54 10.29828 123.96762 43 ft 15 kts 135°
2026-05-08 03:54 10.29745 123.96846 40 ft 19 kts 133°
2026-05-08 03:54 10.29759 123.96940 39 ft 13 kts 46°
2026-05-08 03:54 10.29903 123.97089 39 ft 66 kts 45°
2026-05-08 03:55 10.30461 123.97646 46 ft 153 kts 44°
2026-05-08 03:55 10.31292 123.98472 752 ft 169 kts 43°
2026-05-08 03:55 10.32141 123.99319 1831 ft 176 kts 46°
2026-05-08 03:55 10.33055 124.00246 2526 ft 194 kts 47°
2026-05-08 03:56 10.34051 124.01270 3082 ft 214 kts 47°
2026-05-08 03:56 10.35269 124.02244 3535 ft 237 kts 28°
2026-05-08 03:56 10.36958 124.02613 3923 ft 264 kts
2026-05-08 03:56 10.38797 124.02210 4532 ft 276 kts 343°
2026-05-08 03:57 10.40584 124.01461 5235 ft 280 kts 339°
2026-05-08 03:57 10.42376 124.00661 5951 ft 283 kts 339°
2026-05-08 03:57 10.44186 123.99910 6660 ft 286 kts 341°
2026-05-08 03:57 10.46051 123.99192 7388 ft 288 kts 342°
2026-05-08 03:58 10.47943 123.98506 8106 ft 290 kts 343°
2026-05-08 03:58 10.49865 123.97828 8799 ft 294 kts 343°
2026-05-08 03:58 10.51808 123.97145 9505 ft 297 kts 343°
2026-05-08 03:58 10.53776 123.96456 10151 ft 301 kts 343°
2026-05-08 03:59 10.55813 123.95734 10413 ft 320 kts 343°
2026-05-08 03:59 10.57982 123.94968 10579 ft 340 kts 342°
2026-05-08 03:59 10.60270 123.94164 10890 ft 353 kts 342°
2026-05-08 03:59 10.62597 123.93337 11479 ft 355 kts 341°
2026-05-08 04:00 10.64814 123.92202 12038 ft 361 kts 328°
2026-05-08 04:00 10.66751 123.90561 12617 ft 365 kts 315°
2026-05-08 04:00 10.68413 123.88587 13160 ft 369 kts 311°
2026-05-08 04:00 10.70078 123.86580 13705 ft 372 kts 311°
2026-05-08 04:01 10.71765 123.84567 14179 ft 376 kts 311°
2026-05-08 04:01 10.73472 123.82544 14667 ft 379 kts 312°
2026-05-08 04:01 10.75200 123.80504 15119 ft 382 kts 312°
2026-05-08 04:01 10.76943 123.78446 15573 ft 386 kts 312°
2026-05-08 04:02 10.78700 123.76374 16032 ft 389 kts 312°
2026-05-08 04:02 10.80473 123.74281 16471 ft 392 kts 312°
2026-05-08 04:02 10.82258 123.72175 16914 ft 395 kts 312°
2026-05-08 04:02 10.84060 123.70047 17351 ft 399 kts 313°
2026-05-08 04:03 10.85877 123.67901 17780 ft 402 kts 313°
2026-05-08 04:03 10.89550 123.63562 18620 ft 407 kts 313°
2026-05-08 04:03 10.91397 123.61378 19065 ft 408 kts 312°
2026-05-08 04:04 10.93250 123.59188 19499 ft 409 kts 312°
2026-05-08 04:04 10.95111 123.56988 19935 ft 411 kts 312°
2026-05-08 04:04 10.96980 123.54778 20383 ft 412 kts 312°
2026-05-08 04:04 10.98858 123.52566 20804 ft 414 kts 313°
2026-05-08 04:05 11.00195 123.51179 21078 ft 414 kts 319°
2026-05-08 04:05 11.03232 123.48765 21673 ft 415 kts 328°
2026-05-08 04:05 11.05635 123.47122 22093 ft 417 kts 327°
2026-05-08 04:05 11.08043 123.45454 22542 ft 420 kts 327°
2026-05-08 04:06 11.10455 123.43771 22993 ft 422 kts 327°
2026-05-08 04:06 11.12880 123.42076 23452 ft 424 kts 327°
2026-05-08 04:06 11.15318 123.40371 23810 ft 426 kts 327°
2026-05-08 04:06 11.17768 123.38657 24159 ft 429 kts 327°
2026-05-08 04:07 11.20237 123.36932 24518 ft 432 kts 327°
2026-05-08 04:07 11.22720 123.35198 24866 ft 434 kts 327°
2026-05-08 04:07 11.25221 123.33448 25217 ft 437 kts 327°
2026-05-08 04:07 11.27703 123.31711 25569 ft 440 kts 326°
2026-05-08 04:08 11.30234 123.29942 25926 ft 443 kts 326°
2026-05-08 04:08 11.32812 123.28136 26275 ft 446 kts 326°
2026-05-08 04:08 11.35373 123.26343 26619 ft 448 kts 326°
2026-05-08 04:08 11.37917 123.24561 26955 ft 451 kts 326°
2026-05-08 04:09 11.40508 123.22747 27286 ft 454 kts 326°
2026-05-08 04:09 11.43117 123.20920 27605 ft 456 kts 326°
2026-05-08 04:09 11.45779 123.19056 27967 ft 459 kts 326°
2026-05-08 04:09 11.48381 123.17233 28289 ft 461 kts 325°
2026-05-08 04:10 11.51033 123.15375 28617 ft 464 kts 325°
2026-05-08 04:10 11.53739 123.13479 28943 ft 467 kts 325°
2026-05-08 04:10 11.56389 123.11622 29263 ft 470 kts 325°
2026-05-08 04:10 11.59092 123.09727 29582 ft 472 kts 325°
2026-05-08 04:11 11.61805 123.07823 29911 ft 475 kts 324°
2026-05-08 04:11 11.64533 123.05909 30233 ft 477 kts 324°
2026-05-08 04:11 11.67263 123.03993 30634 ft 476 kts 324°
2026-05-08 04:11 11.69996 123.02074 31017 ft 477 kts 324°
2026-05-08 04:12 11.72735 123.00152 31382 ft 478 kts 324°
2026-05-08 04:12 11.75477 122.98227 31712 ft 480 kts 324°
2026-05-08 04:12 11.78228 122.96295 32040 ft 481 kts 324°
2026-05-08 04:12 11.80989 122.94355 32361 ft 482 kts 324°
2026-05-08 04:13 11.83755 122.92409 32621 ft 484 kts 324°
2026-05-08 04:13 11.86528 122.90460 32852 ft 485 kts 324°
2026-05-08 04:13 11.89308 122.88505 33050 ft 486 kts 323°
2026-05-08 04:13 11.92094 122.86545 33218 ft 487 kts 323°
2026-05-08 04:14 11.94886 122.84580 33382 ft 488 kts 323°
2026-05-08 04:14 11.97679 122.82614 33583 ft 487 kts 323°
2026-05-08 04:14 12.00466 122.80653 33794 ft 486 kts 323°
2026-05-08 04:14 12.03249 122.78693 33868 ft 485 kts 323°
2026-05-08 04:15 12.08801 122.74781 33882 ft 485 kts 323°
2026-05-08 04:15 12.14353 122.70868 33880 ft 485 kts 323°
2026-05-08 04:16 12.19910 122.66949 33882 ft 485 kts 323°
2026-05-08 04:16 12.25469 122.63027 33885 ft 486 kts 323°
2026-05-08 04:17 12.31026 122.59104 33880 ft 486 kts 323°
2026-05-08 04:17 12.36593 122.55173 33885 ft 486 kts 323°
2026-05-08 04:18 12.42121 122.51265 33891 ft 486 kts 323°
2026-05-08 04:18 12.47684 122.47332 33892 ft 486 kts 323°
2026-05-08 04:19 12.53251 122.43394 33890 ft 486 kts 323°
2026-05-08 04:19 12.58784 122.39478 33884 ft 486 kts 323°
2026-05-08 04:20 12.64370 122.35522 33883 ft 486 kts 323°
2026-05-08 04:20 12.69926 122.31584 33887 ft 486 kts 323°
2026-05-08 04:21 12.75484 122.27642 33887 ft 486 kts 323°
2026-05-08 04:21 12.78267 122.25668 33749 ft 487 kts 323°
2026-05-08 04:21 12.81051 122.23692 33497 ft 487 kts 323°
2026-05-08 04:22 12.83656 122.21843 33270 ft 483 kts 323°
2026-05-08 04:22 12.86411 122.19890 33089 ft 445 kts 323°
2026-05-08 04:22 12.88850 122.18163 32756 ft 408 kts 323°
2026-05-08 04:22 12.91085 122.16577 32477 ft 374 kts 323°
2026-05-08 04:23 12.93137 122.15119 32220 ft 345 kts 323°
2026-05-08 04:23 12.95058 122.13752 31957 ft 341 kts 323°
2026-05-08 04:23 12.97057 122.12323 31711 ft 361 kts 323°
2026-05-08 04:23 12.99174 122.10812 31476 ft 380 kts 323°
2026-05-08 04:24 13.01404 122.09223 31240 ft 400 kts 324°
2026-05-08 04:24 13.03749 122.07555 31041 ft 420 kts 324°
2026-05-08 04:24 13.06205 122.05808 30805 ft 439 kts 324°
2026-05-08 04:24 13.08769 122.03985 30583 ft 457 kts 324°
2026-05-08 04:25 13.11431 122.02091 30357 ft 474 kts 324°
2026-05-08 04:25 13.14185 122.00132 30130 ft 485 kts 324°
2026-05-08 04:25 13.16954 121.98163 29897 ft 483 kts 324°
2026-05-08 04:25 13.18777 121.96865 29720 ft 481 kts 324°
2026-05-08 04:26 13.21514 121.94916 29456 ft 478 kts 324°
2026-05-08 04:26 13.24241 121.92972 29191 ft 477 kts 324°
2026-05-08 04:26 13.26960 121.91033 28930 ft 475 kts 324°
2026-05-08 04:26 13.30580 121.88452 28592 ft 472 kts 325°
2026-05-08 04:27 13.32364 121.87180 28413 ft 471 kts 325°
2026-05-08 04:27 13.35049 121.85264 28166 ft 469 kts 325°
2026-05-08 04:27 13.37726 121.83353 27709 ft 468 kts 325°
2026-05-08 04:27 13.40404 121.81441 26939 ft 469 kts 325°
2026-05-08 04:28 13.43077 121.79532 26255 ft 466 kts 325°
2026-05-08 04:28 13.45725 121.77639 25593 ft 460 kts 326°
2026-05-08 04:28 13.48343 121.75769 24907 ft 456 kts 326°
2026-05-08 04:28 13.50932 121.73918 24219 ft 451 kts 326°
2026-05-08 04:29 13.53497 121.72084 23515 ft 448 kts 326°
2026-05-08 04:29 13.56041 121.70265 22757 ft 443 kts 326°
2026-05-08 04:29 13.58534 121.68482 22414 ft 429 kts 326°
2026-05-08 04:29 13.60916 121.66777 22169 ft 405 kts 326°
2026-05-08 04:30 13.63157 121.65174 21939 ft 381 kts 326°
2026-05-08 04:30 13.65278 121.63654 21502 ft 366 kts 326°
2026-05-08 04:30 13.67338 121.62182 21127 ft 356 kts 327°
2026-05-08 04:30 13.69314 121.60656 20885 ft 357 kts 320°
2026-05-08 04:31 13.71165 121.58945 20647 ft 358 kts 319°
2026-05-08 04:31 13.73020 121.57236 20406 ft 357 kts 320°
2026-05-08 04:31 13.74873 121.55535 19997 ft 357 kts 320°
2026-05-08 04:31 13.76721 121.53844 19549 ft 354 kts 320°
2026-05-08 04:32 13.78551 121.52170 19098 ft 350 kts 320°
2026-05-08 04:32 13.80363 121.50513 18638 ft 347 kts 320°
2026-05-08 04:32 13.82149 121.48879 18224 ft 342 kts 320°
2026-05-08 04:32 13.83917 121.47260 17788 ft 337 kts 320°
2026-05-08 04:33 13.85652 121.45667 17368 ft 331 kts 320°
2026-05-08 04:33 13.87359 121.44102 16953 ft 326 kts 320°
2026-05-08 04:33 13.89038 121.42565 16556 ft 321 kts 320°
2026-05-08 04:33 13.90692 121.41056 16157 ft 315 kts 321°
2026-05-08 04:34 13.92322 121.39569 15773 ft 310 kts 321°
2026-05-08 04:34 13.93921 121.38105 15397 ft 306 kts 320°
2026-05-08 04:34 13.95539 121.36620 15010 ft 322 kts 320°
2026-05-08 04:34 13.97248 121.35056 14600 ft 334 kts 320°
2026-05-08 04:35 13.98979 121.33465 14338 ft 331 kts 320°
2026-05-08 04:35 14.00685 121.31897 13916 ft 327 kts 320°
2026-05-08 04:35 14.02375 121.30348 13383 ft 324 kts 320°
2026-05-08 04:35 14.03985 121.28751 12922 ft 318 kts 312°
2026-05-08 04:36 14.05199 121.26886 12542 ft 310 kts 298°
2026-05-08 04:36 14.05989 121.24855 12249 ft 302 kts 291°
2026-05-08 04:36 14.06713 121.22836 11806 ft 300 kts 292°
2026-05-08 04:36 14.07442 121.20853 11482 ft 290 kts 292°
2026-05-08 04:37 14.08152 121.18945 11121 ft 296 kts 292°
2026-05-08 04:37 14.08933 121.16855 10718 ft 317 kts 292°
2026-05-08 04:37 14.09725 121.14741 10338 ft 322 kts 292°
2026-05-08 04:37 14.10517 121.12617 10074 ft 314 kts 292°
2026-05-08 04:38 14.11295 121.10531 9547 ft 311 kts 292°
2026-05-08 04:38 14.12069 121.08467 9075 ft 305 kts 292°
2026-05-08 04:38 14.12824 121.06458 8678 ft 296 kts 292°
2026-05-08 04:38 14.13552 121.04504 8307 ft 288 kts 292°
2026-05-08 04:39 14.14262 121.02605 7936 ft 281 kts 292°
2026-05-08 04:39 14.14952 121.00746 7580 ft 275 kts 291°
2026-05-08 04:39 14.15668 120.98826 7178 ft 299 kts 292°
2026-05-08 04:39 14.16431 120.96804 6922 ft 301 kts 292°
2026-05-08 04:40 14.17358 120.94949 6753 ft 283 kts 310°
2026-05-08 04:40 14.18771 120.93635 6442 ft 267 kts 333°
2026-05-08 04:40 14.20365 120.92743 6201 ft 258 kts 335°
2026-05-08 04:40 14.21923 120.91857 5854 ft 252 kts 334°
2026-05-08 04:41 14.23445 120.90982 5559 ft 251 kts 334°
2026-05-08 04:41 14.24961 120.90087 5263 ft 248 kts 334°
2026-05-08 04:41 14.26420 120.89211 5137 ft 239 kts 334°
2026-05-08 04:41 14.27881 120.88343 5029 ft 245 kts 334°
2026-05-08 04:42 14.29362 120.87475 4804 ft 246 kts 334°
2026-05-08 04:42 14.30861 120.86617 4488 ft 244 kts 335°
2026-05-08 04:42 14.32335 120.85765 4196 ft 242 kts 333°
2026-05-08 04:42 14.33773 120.84889 3944 ft 240 kts 334°
2026-05-08 04:43 14.35216 120.84036 3687 ft 238 kts 334°
2026-05-08 04:43 14.36651 120.83192 3394 ft 237 kts 334°
2026-05-08 04:43 14.38115 120.82458 3131 ft 233 kts 349°
2026-05-08 04:43 14.39681 120.82419 2894 ft 221 kts 19°
2026-05-08 04:44 14.40923 120.83164 2785 ft 198 kts 51°
2026-05-08 04:44 14.41580 120.84323 2725 ft 181 kts 70°
2026-05-08 04:44 14.42012 120.85494 2707 ft 171 kts 71°
2026-05-08 04:44 14.42452 120.86628 2489 ft 171 kts 68°
2026-05-08 04:45 14.42966 120.87726 2192 ft 169 kts 65°
2026-05-08 04:45 14.43517 120.88786 1925 ft 168 kts 64°
2026-05-08 04:45 14.44086 120.89849 1650 ft 171 kts 62°
2026-05-08 04:45 14.44655 120.90902 1448 ft 163 kts 64°
2026-05-08 04:46 14.45177 120.91847 1320 ft 141 kts 61°
2026-05-08 04:46 14.45671 120.92675 1208 ft 132 kts 58°
2026-05-08 04:46 14.46184 120.93441 1123 ft 134 kts 57°
2026-05-08 04:46 14.46685 120.94277 1074 ft 136 kts 62°
2026-05-08 04:47 14.47085 120.95116 944 ft 130 kts 67°
2026-05-08 04:47 14.47557 120.95953 838 ft 135 kts 62°
2026-05-08 04:47 14.48028 120.96809 741 ft 138 kts 63°
2026-05-08 04:47 14.48349 120.97382 649 ft 130 kts 62°
2026-05-08 04:48 14.48797 120.98218 518 ft 135 kts 64°
2026-05-08 04:48 14.49264 120.99063 383 ft 140 kts 65°
2026-05-08 04:48 14.49756 120.99959 140 ft 139 kts 63°
2026-05-08 04:48 14.50209 121.00772 70 ft 112 kts 60°
2026-05-08 04:49 14.50504 121.01304 67 ft 70 kts 60°
2026-05-08 04:49 14.50723 121.01701 66 ft 52 kts 59°
2026-05-08 04:49 14.50895 121.02005 68 ft 46 kts 60°
2026-05-08 04:49 14.51045 121.02230 70 ft 32 kts 44°
2026-05-08 04:50 14.51141 121.02303 68 ft 10 kts 30°
2026-05-08 04:50 14.51193 121.02282 67 ft 8 kts 298°
2026-05-08 04:50 14.51168 121.02218 70 ft 12 kts 240°
2026-05-08 04:50 14.51121 121.02134 73 ft 15 kts 240°
2026-05-08 04:51 14.51066 121.02035 67 ft 13 kts 242°
2026-05-08 04:51 14.51103 121.01955 64 ft 14 kts 316°
2026-05-08 04:51 14.51179 121.01876 66 ft 17 kts 315°
2026-05-08 04:51 14.51270 121.01785 66 ft 20 kts 315°
2026-05-08 04:52 14.51371 121.01678 64 ft 22 kts 312°
2026-05-08 04:52 14.51483 121.01563 64 ft 24 kts 316°
2026-05-08 04:52 14.51603 121.01438 64 ft 25 kts 314°
2026-05-08 04:52 14.51733 121.01305 64 ft 27 kts 317°
2026-05-08 04:53 14.51870 121.01164 69 ft 28 kts 314°
2026-05-08 04:53 14.52013 121.01017 72 ft 24 kts 315°
2026-05-08 04:53 14.52087 121.00962 73 ft 9 kts 357°
2026-05-08 04:53 14.52108 121.00998 64 ft 8 kts 64°
2026-05-08 04:54 14.52140 121.01036 64 ft 6 kts 46°
2026-05-08 04:54 14.52141 121.01037 64 ft 0 kts 46°